User: anonymous   Login
Location: Astronight Observatory
(42.6003°N, 71.2981°W)
Time: 07:49:06
(UTC-04:00)
Language:

DELTA 2 R/B (1) - Orbit

View from above orbital plane
View from above orbital plane
View from above satellite
View from above satellite

Ground track
Ground track

The orbit data is extracted from the following two-line orbital elements,

1 27665U 03005C   16143.93085703 +.00000031 +00000-0 +45959-4 0  9994
2 27665 039.5763 297.3182 0010188 257.4126 253.1093 14.28407285695024
Epoch (UTC): 22 May 2016 22:20:26
Eccentricity: 0.0010188
inclination: 39.5763°
perigee height: 790 km
apogee height: 804 km
right ascension of ascending node: 297.3182°
argument of perigee: 257.4126°
revolutions per day: 14.28407285
mean anomaly at epoch: 253.1093°
orbit number at epoch: 69502

The dashed part of the orbit path shows where the satellite is in the earth's shadow,  

DLR